Meteo Giornale » Osservazioni meteo Repubblica Ceca » Namest

ore: 15:30 - Osservazioni Meteo Namest
Lat. 49° 10' N Lon. 16° 7' E Alt. 472 metri s.l.m.

nebbia Europe/Prague

-1 °C

Nebbia Congelantesi

Temp. 24 Ore

-2 °C

-1 °C

Nord

3.7 Km/h

Dew point -1 °C

Umidità 100 %

Visibilità  0.1 Km

Il sole sorge alle ore 07:22

Il sole tramonta alle ore 16:04

Data e Ora Cielo e Fenomeni T °C DP °C Um. % Pres. hPa Vis. km Vento km/h
Oggi h: 15:30 nebbia Nebbia Congelantesi -1 -1 100 1021 0.1 N 3.7
Oggi h: 15:00 nebbia Nebbia Congelantesi -1 -1 100 1021 0.2 N 1.8
Oggi h: 14:30 nebbia Nebbia Congelantesi -1 -1 100 1021 0.2 N 0
Oggi h: 14:00 nebbia Nebbia Congelantesi -1 -1 100 1021 0.2 N 3.7
Oggi h: 13:30 nebbia Nebbia Congelantesi -1 -1 100 1021 0.2 N 3.7
Oggi h: 13:00 nebbia Nebbia Congelantesi -1 -1 100 1021 0.2 N 1.8
Oggi h: 12:30 nebbia Nebbia Congelantesi -1 -1 100 1022 0.2 N 1.8
Oggi h: 12:00 nebbia Nebbia Congelantesi -1 -2 92 1022 0.2 N 3.7
Oggi h: 11:30 nebbia Nebbia Congelantesi -1 -2 92 1022 0.2 N 3.7
Oggi h: 11:00 nebbia Nebbia Congelantesi -1 -2 92 1022 0.3 N 3.7
Oggi h: 10:30 nebbia Nebbia Congelantesi -1 -2 92 1022 0.3 N 5.5
Oggi h: 10:00 nebbia Nebbia Congelantesi -2 -2 100 1022 0.3 N 3.7
Oggi h: 09:30 nebbia Nebbia Congelantesi -2 -2 100 1022 0.2 N 3.7
Oggi h: 09:00 nebbia Nebbia Congelantesi -2 -2 100 1022 0.2 N 5.5
Oggi h: 07:00 nebbia Nebbia Congelantesi -2 -2 100 1021 0.2 N 3.7
Oggi h: 06:30 nebbia Nebbia Congelantesi -2 -2 100 1022 0.15 N 1.8
Oggi h: 06:00 nebbia Nebbia Congelantesi -2 -2 100 1022 0.15 N 1.8
Oggi h: 05:30 nebbia Nebbia Congelantesi -2 -3 92 1022 0.2 N 1.8
Oggi h: 05:00 nebbia Nebbia Congelantesi -2 -3 92 1022 0.2 N 3.7
Oggi h: 04:30 nebbia Nebbia Congelantesi -2 -3 92 1021 0.2 N 1.8
Oggi h: 03:30 nebbia Nebbia Congelantesi -2 -3 92 1022 0.2 N 1.8
Oggi h: 03:00 nebbia Nebbia Congelantesi -2 -3 92 1022 0.2 N 3.7
Oggi h: 02:30 nebbia Nebbia Congelantesi -2 -3 92 1022 0.2 N 0
Oggi h: 02:00 nebbia Nebbia Congelantesi -2 -3 92 1022 0.2 N 3.7
Oggi h: 01:30 nebbia Nebbia Congelantesi -2 -2 100 1022 0.2 N 3.7
Oggi h: 01:00 nebbia Nebbia Congelantesi -2 -2 100 1022 0.2 N 3.7
Oggi h: 00:00 nebbia Nebbia Congelantesi -2 -2 100 1022 0.2 N 5.5
Ieri h: 23:30 nebbia Nebbia Congelantesi -2 -2 100 1022 0.3 N 3.7
Ieri h: 23:00 nebbia Nebbia Congelantesi -2 -2 100 1022 0.3 N 1.8
Ieri h: 21:30 nebbia Nebbia Congelantesi -2 -2 100 1023 0.2 N 1.8
Ieri h: 21:00 nebbia Nebbia Congelantesi -2 -2 100 1023 0.2 N 0
Ieri h: 20:30 nebbia Nebbia Congelantesi -2 -2 100 1022 0.2 N 5.5
Ieri h: 20:00 nebbia Nebbia Congelantesi -2 -2 100 1022 0.2 N 1.8
Ieri h: 19:30 nebbia Nebbia Congelantesi -2 -2 100 1022 0.2 N 5.5
Ieri h: 19:00 nebbia Nebbia Congelantesi -2 -2 100 1022 0.2 N 5.5
Ieri h: 18:30 nebbia Nebbia Congelantesi -2 -2 100 1022 0.2 N 5.5
Ieri h: 18:00 nebbia Nebbia Congelantesi -2 -2 100 1022 0.3 N 5.5
Ieri h: 17:00 nebbia Nebbia Congelantesi -2 -2 100 1022 0.4 S/SE 7.4
Ieri h: 16:00 nebbia Nebbia Congelantesi -1 -1 100 1022 0.2 S/SE 7.4